Volver al catálogo

SL-16 DEB

ActivoLEO
NORAD 26968·DEBRIS·🇷🇺 Russia

Lanzado Mar 26, 1993 desde Baikonur Cosmodrome

Loading…

Próximos Pases (próximas 24 horas)

TLE

ActualizadoSource: Space-Track

Época: Sep 14, 2026, 05:15 UTC

1 26968U 93016AJ  26257.21894846  .00001441  00000-0  43639-3 0  9992
2 26968  70.9931  66.9236 0005912  83.0094  91.2238 14.43978765742153

Sigue SL-16 DEB en tiempo real con AllMySat

Download on the App Store